Location: Elliott Corner
(37.4627°N, 119.7746°W)
Time: 20:30:45
(UTC+00:00)

Cosmos 1939 Rocket - Pass Details

Date: 10 September 2024
Orbit: 509 x 550 km, 97.5° (Epoch: 11 October)

Event Time Altitude Azimuth Distance (km) Brightness Sun altitude
Rises 12:36:37 0° 10° (N) 2,745 6.8 -12.7°
Reaches altitude 10° 12:38:45 10° 9° (N) 1,849 5.8 -12.3°
Maximum altitude 12:42:45 79° 284° (WNW) 573 2.8 -11.5°
Drops below altitude 10° 12:46:44 10° 197° (SSW) 1,834 5.2 -10.7°
Enters shadow 12:50:44 -6° 196° (SSW) 3,513 6.6 -10.0°
